Vertical_Velocity
-0 -0 -2 2 2 3 -1 1 2 -2 -1 -2 -2 -3 -2 -3 -4 -4 -2 -3 -2 -6 -0 -4 -1 4 -1 2 -5 0 0 0 -1 1 -1 3 -0 -3 4 6 -1 -4 7 -2 -3 -0 8
0 -4 -4 1 2 3 5 0 -1 1 -1 -1 -0 -2 -3 -4 -2 -7 -6 -8 -3 -4 -3 -4 -6 2 1 -0 4 -8 -6 -1 -2 0 1 6 1 -2 1 7 5 -7 1 3 1 6 -5
1 -3 -1 -5 -3 -3 0 1 -3 -1 -1 -1 -3 -1 -1 -2 -3 -4 -5 -1 -4 -4 -6 -7 -4 2 2 -6 -0 -1 -1 -2 2 3 3 1 -1 2 4 8 1 3 -3 2 8 6 -2
-0 -2 -2 -1 1 0 -4 -5 -1 -1 -1 -4 -2 -0 0 -1 -1 -2 -3 -4 -5 -4 -3 -5 -1 -1 -1 -2 -2 -1 -5 -4 -3 -0 -3 3 -1 3 7 7 -1 5 -3 6 3 0 2
0 3 -0 -1 -1 4 2 -2 -5 -3 -5 -4 -2 -5 -5 -2 -1 -9 -7 -5 -0 2 -1 -2 -2 -5 -3 2 -4 -3 -7 1 1 -0 -3 2 -1 1 8 9 -2 4 -2 -1 0 -0 -2
7 5 3 -1 1 0 4 2 1 -0 -2 -3 -5 -5 -3 -5 -4 -2 1 -0 2 2 -3 -5 0 -3 -1 -0 0 -6 -0 4 -0 3 -2 2 -4 3 0 8 1 2 3 1 5 8 -5
6 2 6 2 -2 1 1 2 1 -2 -1 -1 -2 -2 2 3 -4 -2 -1 1 1 -2 -7 1 -3 -2 -4 -0 -3 -4 1 0 3 2 -1 -1 -2 6 6 -5 8 5 2 -0 7 4 -15
3 6 5 1 -1 -4 0 1 1 0 2 1 3 4 0 0 -1 -2 -3 -2 -1 6 -7 -1 -0 -1 -0 -3 -1 -1 3 -2 2 -0 -2 1 4 0 1 1 -2 -0 -1 1 -6 2 -15
7 2 1 2 -1 -1 -2 2 0 -3 1 -2 -0 3 -3 0 -2 -1 -2 -3 -1 1 0 -1 -5 -7 -7 -3 -3 0 -3 3 3 0 -2 -1 1 3 1 2 3 1 2 4 6 -3 -2
4 1 1 3 3 -3 -0 1 2 -1 -3 -0 2 2 -4 -1 -0 -4 -2 -1 -1 -1 -0 3 -0 -4 -5 -7 -1 -2 -1 0 2 1 -2 1 2 -2 -0 -0 2 0 -2 -4 -2 -5 2
5 2 5 7 -2 -1 3 1 2 0 -6 3 3 -0 -3 -2 -1 -3 -4 -2 1 2 -1 4 1 -0 -2 0 0 2 -0 -4 -1 2 1 2 4 3 1 1 -1 -2 3 2 0 -0 -2
4 -1 1 2 -3 -1 4 5 5 1 -0 -1 4 4 -2 1 -2 0 -5 -5 2 -0 -10 -5 -2 -4 -2 -2 -5 -0 1 1 -0 2 1 -1 -1 4 -2 -1 0 1 3 1 3 -2 -2
4 -1 -3 2 -0 -0 3 5 7 -1 -1 -3 2 -1 2 -5 4 1 -3 -6 -4 0 4 -3 -4 -1 -2 3 -7 -2 -1 0 1 3 -1 0 -1 -1 0 -1 -0 0 4 3 -2 -3 4
9 9 12 4 -1 1 -0 4 2 5 -1 1 -4 1 3 1 0 4 2 2 -6 2 -1 3 -3 -3 -7 2 -1 1 -1 -2 3 -0 0 0 -2 1 2 1 1 -4 2 2 1 -0 -2
5 3 4 1 5 3 5 3 1 6 2 -2 3 -3 2 -2 7 -4 -1 3 -7 3 4 -4 0 -4 -0 -3 3 1 1 -0 -3 3 3 0 0 1 0 1 1 -0 -0 0 -1 0 -4
3 3 1 1 -1 1 3 3 3 2 5 -1 -1 0 3 -3 1 -1 0 -4 -11 -4 -1 -2 -1 3 3 -3 2 -2 4 -3 -5 2 -1 -3 4 -0 2 -0 -1 0 0 -3 1 -2 -1
1 2 2 0 -2 2 -1 6 2 3 -2 -4 3 -4 4 -1 -0 4 -6 -2 -3 -5 1 1 0 -4 -2 -1 -0 0 -3 -10 -1 1 1 2 1 -8 2 4 -4 -1 0 0 -1 0 -2
-1 0 2 -2 1 1 4 3 1 -0 -1 -2 -2 -0 4 -0 -3 -4 -3 -1 -1 -5 -4 -4 -2 -5 -2 3 -2 5 5 -7 1 -0 -1 4 -1 2 1 -6 -1 -3 3 1 -1 -1 0
0 1 2 1 0 3 2 2 1 1 -2 2 -0 1 -5 -3 -3 -2 -3 -5 -7 -9 -5 -5 -4 -3 -2 -0 -8 -1 7 9 3 1 2 -0 -3 6 5 0 -0 -1 3 1 -1 -1 -3
4 0 -0 3 2 1 2 1 0 0 -0 0 2 -5 -2 -1 -1 -4 -7 -4 -6 -9 -7 -6 -3 -5 -3 -5 -4 0 2 5 4 0 4 4 -1 3 -0 3 3 7 3 -1 -1 -1 -1
1 -0 2 4 -0 2 1 -1 2 3 2 2 -3 -1 2 -5 -2 -6 -5 -5 -8 -8 -7 -4 -6 -4 -8 -8 -5 1 -2 -2 1 1 0 0 2 -1 -5 -4 4 1 0 -1 -1 -2 -1
1 1 4 -3 -1 4 -1 3 1 3 1 -4 -4 -4 -1 -3 -6 -5 -2 -5 -5 -6 -7 -4 -2 -2 -6 -5 -3 -2 2 7 0 3 -2 14 14 -0 -4 8 19 7 3 3 -0 1 1
1 3 1 1 0 0 -1 3 1 0 -3 0 -4 6 1 -2 -5 -7 -4 -1 -3 -4 -2 -6 -1 -1 -5 -3 -2 1 -3 0 5 -3 4 7 30 -3 0 5 7 4 -1 1 1 1 1
-2 -0 2 2 -2 -1 -1 1 -1 1 1 -2 2 -1 -4 -6 -9 -6 -5 3 -1 -0 -4 -4 -1 -1 -4 -1 3 -3 -1 -4 -1 2 2 18 29 12 -2 -2 5 -6 -0 -3 3 -1 -3
1 0 2 -1 -1 -0 0 1 -1 1 -1 -1 -1 -2 -2 -8 -4 -6 -3 -1 -1 1 1 -4 -3 -3 0 -2 -5 -0 6 -0 1 2 8 21 8 11 -1 2 -3 -0 -3 -2 -1 -6 -5
2 -2 -1 -1 -0 0 -1 1 -1 3 -2 1 -3 -4 -5 -4 -4 -5 -3 -3 -2 -1 -1 0 -3 -5 -2 -2 -3 4 8 7 -4 -3 8 12 3 9 4 4 1 -1 -1 -0 -4 -7 -6
2 1 1 2 1 1 -1 -0 1 2 -2 -1 -2 -4 -5 -4 -5 -4 -3 -2 -3 -2 -2 1 -2 -1 -2 -4 -1 5 10 -1 -2 -3 4 4 5 4 0 0 -1 -0 -1 2 -2 4 -3
2 2 3 1 2 -0 -1 -0 0 1 -1 -1 -1 -4 -2 -3 -5 -4 -5 -6 -3 -1 -3 -1 0 0 -3 -7 -2 25 33 3 2 2 -5 3 -1 -2 1 -0 -2 -1 -2 -5 -2 -2 -3
1 0 0 1 0 -0 1 -0 1 1 -3 -0 -0 0 -5 -5 -3 -5 -4 -5 -5 -3 -0 0 -1 -1 -1 -2 -4 13 2 -0 -1 4 5 1 2 4 -1 -4 -9 -5 -4 -4 -5 -0 -1
Height
5740 5742 5744 5744 5744 5744 5743 5743 5743 5742 5743 5742 5742 5741 5740 5739 5738 5736 5735 5734 5731 5727 5724 5720 5719 5717 5715 5714 5713 5711 5710 5710 5707 5707 5709 5710 5711 5711 5711 5712 5714 5717 5718 5721 5722 5724 5728
5726 5726 5730 5731 5731 5733 5732 5731 5730 5730 5731 5731 5730 5729 5727 5726 5725 5724 5723 5722 5719 5713 5713 5708 5710 5707 5703 5702 5700 5699 5697 5697 5695 5695 5695 5696 5697 5697 5699 5700 5702 5705 5707 5710 5712 5715 5718
5712 5713 5713 5713 5717 5717 5717 5718 5718 5717 5717 5717 5717 5716 5714 5711 5711 5709 5709 5706 5706 5703 5702 5699 5701 5693 5692 5691 5689 5686 5684 5683 5682 5683 5683 5683 5684 5686 5686 5688 5690 5694 5697 5700 5703 5705 5708
5698 5699 5700 5700 5699 5700 5703 5704 5704 5704 5703 5704 5704 5702 5700 5697 5696 5696 5696 5697 5694 5692 5690 5688 5686 5681 5682 5680 5678 5676 5676 5676 5674 5672 5671 5672 5672 5673 5673 5676 5680 5685 5687 5690 5692 5694 5697
5685 5683 5685 5686 5686 5684 5684 5686 5689 5691 5692 5691 5691 5690 5690 5689 5686 5685 5685 5685 5682 5678 5675 5675 5673 5673 5672 5669 5668 5667 5666 5664 5663 5662 5661 5661 5660 5661 5665 5670 5673 5675 5678 5679 5681 5684 5686
5668 5669 5670 5672 5672 5671 5670 5672 5672 5674 5676 5677 5677 5677 5677 5676 5673 5671 5672 5672 5669 5666 5665 5663 5664 5666 5663 5661 5659 5658 5656 5655 5654 5653 5652 5652 5651 5653 5657 5662 5664 5665 5668 5671 5673 5678 5679
5649 5650 5652 5655 5658 5659 5659 5658 5659 5660 5661 5662 5663 5662 5662 5660 5660 5660 5662 5661 5661 5656 5654 5656 5657 5655 5653 5652 5650 5649 5647 5646 5646 5646 5644 5643 5645 5649 5652 5651 5656 5658 5658 5661 5666 5668 5670
5630 5633 5634 5638 5641 5644 5646 5648 5647 5648 5649 5649 5650 5651 5650 5651 5651 5651 5650 5651 5651 5649 5647 5648 5647 5647 5646 5646 5644 5641 5641 5640 5639 5638 5637 5638 5638 5641 5643 5646 5647 5649 5651 5654 5656 5660 5661
5614 5617 5621 5624 5627 5631 5634 5636 5636 5638 5638 5640 5640 5641 5641 5641 5642 5642 5642 5643 5643 5644 5642 5641 5640 5640 5640 5639 5636 5635 5635 5634 5633 5632 5631 5630 5632 5634 5635 5639 5640 5642 5644 5647 5649 5652 5654
5603 5606 5609 5612 5615 5619 5622 5623 5625 5626 5627 5629 5630 5630 5631 5632 5634 5633 5634 5635 5636 5636 5635 5635 5633 5632 5631 5629 5629 5628 5627 5628 5627 5626 5624 5623 5626 5627 5629 5633 5634 5635 5635 5638 5640 5643 5646
5593 5596 5598 5601 5607 5609 5611 5612 5614 5615 5617 5619 5621 5620 5620 5622 5624 5624 5625 5626 5627 5628 5627 5628 5626 5624 5624 5625 5623 5622 5621 5620 5619 5620 5620 5619 5619 5620 5622 5625 5625 5627 5629 5631 5633 5635 5637
5581 5584 5588 5590 5596 5598 5600 5602 5603 5604 5607 5609 5610 5609 5611 5612 5614 5614 5615 5618 5619 5621 5618 5620 5620 5618 5618 5617 5617 5616 5616 5615 5614 5614 5614 5613 5613 5615 5614 5617 5619 5621 5623 5625 5626 5628 5630
5569 5572 5576 5578 5582 5587 5590 5592 5593 5595 5597 5599 5601 5601 5603 5605 5606 5606 5607 5609 5612 5612 5612 5611 5610 5610 5610 5610 5610 5609 5609 5608 5608 5609 5608 5608 5607 5609 5609 5610 5612 5615 5618 5620 5621 5622 5624
5558 5561 5563 5567 5571 5575 5580 5581 5582 5585 5588 5591 5593 5593 5596 5597 5598 5598 5599 5601 5602 5603 5602 5602 5601 5600 5600 5601 5601 5602 5601 5601 5601 5600 5601 5602 5603 5603 5605 5606 5606 5608 5612 5614 5613 5615 5618
5548 5552 5555 5560 5563 5566 5569 5572 5573 5575 5577 5581 5585 5587 5589 5591 5592 5592 5593 5592 5592 5593 5593 5591 5590 5590 5589 5589 5590 5590 5591 5591 5592 5594 5594 5594 5596 5597 5599 5601 5603 5603 5605 5608 5608 5609 5611
5541 5544 5548 5552 5556 5558 5562 5563 5566 5567 5570 5573 5576 5580 5583 5584 5584 5584 5584 5582 5581 5581 5580 5579 5578 5577 5577 5576 5576 5576 5578 5580 5582 5584 5585 5586 5589 5590 5592 5595 5597 5598 5600 5603 5603 5605 5606
5533 5536 5540 5543 5547 5551 5554 5556 5559 5561 5564 5568 5571 5574 5576 5576 5576 5575 5574 5573 5570 5569 5568 5567 5564 5561 5561 5561 5560 5561 5565 5565 5570 5573 5576 5578 5580 5582 5587 5588 5590 5592 5594 5596 5598 5599 5601
5524 5527 5530 5535 5539 5542 5546 5549 5554 5556 5559 5563 5566 5568 5568 5568 5568 5566 5564 5561 5558 5555 5553 5549 5546 5542 5539 5540 5540 5544 5548 5550 5556 5562 5567 5569 5571 5574 5578 5580 5583 5586 5589 5591 5592 5596 5596
5514 5519 5522 5527 5531 5535 5542 5545 5549 5553 5555 5557 5559 5560 5561 5561 5558 5556 5553 5549 5545 5541 5536 5531 5527 5524 5523 5525 5523 5526 5529 5536 5542 5550 5556 5559 5563 5567 5571 5574 5575 5579 5582 5584 5586 5588 5591
5506 5511 5516 5520 5526 5531 5536 5540 5544 5548 5550 5551 5553 5553 5554 5552 5549 5546 5543 5539 5533 5528 5523 5520 5517 5516 5516 5514 5511 5511 5512 5520 5528 5537 5547 5549 5554 5559 5564 5567 5569 5572 5575 5578 5581 5583 5586
5501 5505 5509 5516 5520 5526 5531 5536 5540 5542 5543 5545 5545 5545 5545 5543 5541 5538 5534 5530 5524 5521 5518 5514 5511 5509 5508 5508 5506 5505 5503 5506 5515 5526 5535 5543 5546 5551 5556 5560 5562 5564 5567 5572 5575 5578 5581
5497 5500 5506 5510 5515 5521 5527 5531 5534 5535 5537 5538 5538 5538 5536 5535 5533 5530 5527 5523 5520 5516 5513 5510 5508 5506 5505 5505 5503 5501 5500 5500 5507 5519 5528 5535 5540 5543 5547 5552 5552 5556 5560 5565 5568 5571 5575
5492 5497 5501 5505 5511 5516 5521 5525 5527 5529 5530 5530 5531 5529 5528 5527 5525 5523 5521 5517 5514 5511 5509 5506 5504 5503 5502 5502 5499 5498 5497 5497 5501 5510 5519 5527 5532 5536 5540 5544 5546 5551 5555 5559 5563 5565 5568
5486 5491 5497 5501 5506 5512 5516 5519 5521 5523 5522 5523 5523 5523 5521 5520 5518 5515 5513 5511 5508 5505 5503 5502 5500 5499 5499 5498 5497 5496 5494 5494 5496 5504 5513 5519 5523 5526 5532 5538 5543 5545 5550 5555 5557 5559 5562
5482 5487 5492 5496 5501 5505 5509 5512 5515 5515 5515 5516 5516 5516 5514 5512 5510 5508 5505 5502 5500 5499 5497 5496 5496 5495 5494 5495 5495 5493 5491 5492 5496 5501 5506 5514 5519 5523 5527 5533 5537 5541 5546 5550 5552 5554 5556
5477 5481 5485 5489 5494 5498 5502 5505 5506 5508 5509 5509 5509 5509 5507 5506 5503 5500 5498 5495 5493 5492 5491 5492 5492 5492 5491 5492 5492 5490 5491 5491 5495 5500 5502 5510 5515 5521 5525 5530 5533 5537 5541 5544 5547 5549 5550
5468 5473 5478 5483 5487 5491 5494 5497 5500 5502 5503 5503 5503 5502 5500 5498 5496 5494 5493 5490 5488 5487 5486 5487 5487 5488 5489 5490 5490 5488 5488 5490 5494 5499 5505 5509 5512 5517 5521 5525 5530 5532 5536 5539 5543 5548 5546
5461 5466 5471 5476 5480 5484 5488 5491 5494 5496 5497 5498 5497 5495 5494 5492 5491 5489 5488 5486 5484 5483 5482 5483 5484 5485 5488 5489 5489 5486 5486 5490 5493 5498 5504 5508 5513 5516 5519 5522 5528 5529 5533 5536 5537 5539 5542
5453 5459 5463 5468 5473 5477 5481 5485 5488 5490 5491 5491 5491 5489 5487 5486 5487 5485 5484 5482 5481 5479 5479 5479 5482 5483 5486 5488 5489 5488 5488 5491 5494 5497 5501 5506 5510 5513 5518 5521 5524 5526 5528 5530 5531 5534 5537